Chicopee, MA

5:26 AM EDT on September 22, 2019 (GMT -0400)
Westover Air Reserve Base / Metropolitan Airport

Weather History for KCEF - August, 2019

Change the Weather History Date:

Tuesday, August 20, 2019

  Actual Average Record
Temperature  
Mean Temperature 74 °F -  
Max Temperature 87 °F 79 °F 89 °F (2016)
Min Temperature 61 °F 58 °F 43 °F (2008)
Cooling Degree Days 9    
Growing Degree Days 24 (Base 50)    
Moisture  
Dew Point 61 °F    
Average Humidity 73    
Maximum Humidity 100    
Minimum Humidity 31    
Precipitation  
Precipitation 0.00 in - - ()
Sea Level Pressure  
Sea Level Pressure 30.06 in    
Wind  
Wind Speed 1 mph ()    
Max Wind Speed 10 mph    
Max Gust Speed -    
Visibility 8.4 miles    
Events      
Averages and records for this station are not official NWS values.
T = Trace of Precipitation, MM = Missing Value Source: Averaged Metar Reports

Daily Weather History Graph

Daily Weather History Graph

Search for Another Location

Airport or City:

Astronomy

Aug. 20, 2019 Rise Set
Actual Time 6:02 AM EDT 7:43 PM EDT
Civil Twilight 5:32 AM EDT 8:13 PM EDT
Nautical Twilight 4:56 AM EDT 8:49 PM EDT
Astronomical Twilight 4:17 AM EDT 9:27 PM EDT
Moon 10:25 PM EDT (8/20) 10:42 AM EDT (8/20)
Length of Visible Light 14h 40m
Length of Day
13h 41m
Waning Gibbous, 78% of the Moon is Illuminated
Aug 20
Waning Gibbous
Aug 23
Last Quarter
Aug 30
New
Sep 5
First Quarter
Sep 14
Full

Hourly Weather History & Observations

Time (EDT) Temp. Heat Index Dew Point Humidity Pressure Visibility Wind Dir Wind Speed Gust Speed Precip Events Conditions
12:55 AM 68.0 °F - 68.0 °F 100% 30.01 in 1.0 mi Calm Calm - N/A   Clear
12:56 AM 68.5 °F - 68.5 °F 100% 30.01 in 0.9 mi Calm Calm - N/A   Clear
12:59 AM 68.0 °F - 68.0 °F 100% 30.00 in 1.4 mi Calm Calm - N/A   Clear
1:14 AM 68.0 °F - 68.0 °F 100% 30.00 in 1.8 mi Calm Calm - N/A   Clear
1:29 AM 68.0 °F - 68.0 °F 100% 30.00 in 10.0 mi Calm Calm - N/A   Clear
1:56 AM 68.0 °F - 68.0 °F 100% 30.00 in 10.0 mi Calm Calm - N/A   Clear
2:56 AM 66.6 °F - 66.2 °F 99% 30.03 in 10.0 mi South 5.8 mph - N/A   Clear
3:56 AM 64.4 °F - 63.9 °F 98% 30.04 in 9.0 mi Calm Calm - N/A   Clear
4:56 AM 63.7 °F - 63.3 °F 99% 30.05 in 3.0 mi Calm Calm - N/A   Clear
5:56 AM 61.7 °F - 61.3 °F 99% 30.06 in 7.0 mi Calm Calm - N/A   Clear
6:56 AM 63.1 °F - 63.1 °F 100% 30.10 in 10.0 mi Calm Calm - N/A   Partly Cloudy
7:56 AM 69.3 °F - 65.5 °F 88% 30.12 in 10.0 mi Calm Calm - N/A   Partly Cloudy
8:56 AM 73.2 °F - 60.3 °F 64% 30.12 in 10.0 mi Calm Calm - N/A   Partly Cloudy
9:56 AM 75.6 °F - 57.7 °F 54% 30.12 in 10.0 mi West 4.6 mph - N/A   Partly Cloudy
10:56 AM 78.8 °F - 53.8 °F 42% 30.12 in 10.0 mi NNW 3.5 mph - N/A   Partly Cloudy
11:56 AM 80.1 °F 80.0 °F 53.6 °F 40% 30.11 in 10.0 mi WNW 5.8 mph - N/A   Partly Cloudy
12:56 PM 82.8 °F - 51.4 °F 34% 30.09 in 10.0 mi NNE 5.8 mph - N/A   Partly Cloudy
1:56 PM 84.2 °F - 52.0 °F 33% 30.08 in 10.0 mi Calm Calm - N/A   Partly Cloudy
2:56 PM 86.4 °F - 52.2 °F 31% 30.08 in 10.0 mi Calm Calm - N/A   Partly Cloudy
3:56 PM 86.5 °F 84.6 °F 53.1 °F 32% 30.06 in 10.0 mi SW 5.8 mph - N/A   Partly Cloudy
4:56 PM 87.1 °F 85.3 °F 54.5 °F 33% 30.06 in 10.0 mi WSW 8.1 mph - N/A   Scattered Clouds
5:56 PM 86.0 °F 84.7 °F 55.9 °F 36% 30.05 in 10.0 mi WSW 10.4 mph - N/A   Scattered Clouds
6:56 PM 82.8 °F - 52.3 °F 35% 30.04 in 10.0 mi West 5.8 mph - N/A   Mostly Cloudy
7:56 PM 72.1 °F - 61.3 °F 69% 30.04 in 10.0 mi Calm Calm - N/A   Mostly Cloudy
8:56 PM 67.8 °F - 63.1 °F 85% 30.04 in 10.0 mi NE 3.5 mph - N/A   Mostly Cloudy
9:56 PM 67.3 °F - 64.6 °F 91% 30.05 in 10.0 mi Calm Calm - N/A   Mostly Cloudy
10:56 PM 65.8 °F - 63.7 °F 93% 30.06 in 10.0 mi NE 3.5 mph - N/A   Partly Cloudy
11:56 PM 64.6 °F - 63.1 °F 95% 30.03 in 10.0 mi Calm Calm - N/A   Clear